#timestamp,LO_Frequency,Hit 
1503532815.7,286047000.0,N
1503532835.5,286047000.3,N
1503532855.4,286047000.1,N
1503532875.2,286047002.5,N
1503532895.0,286047002.4,N
1503532895.9,286047002.4,N
1503532915.8,286047002.4,N
1503532935.6,286047000.9,N
1503532955.4,286046999.7,N
1503532975.3,286046999.7,N
1503532995.1,286046999.1,N
1503533015.9,286046997.3,N
1503533035.7,286046998.2,N
1503533055.5,286046996.9,N
1503533075.4,286046996.8,N
1503533095.2,286047000.0,N
1503533115.0,286047000.3,N
1503533115.9,286047000.3,N
1503533135.8,286046999.8,N
1503533155.6,286047002.5,N
1503533175.5,286047001.5,N
1503533195.3,286047004.0,N
1503533215.1,286047002.9,N
1503533235.9,286047004.4,N
1503533255.7,286047002.6,N
1503533275.5,286047002.4,N
1503533295.4,286047002.4,N
1503533315.2,286046998.2,N
1503533335.1,286046998.1,N
1503533336.0,286046998.1,N
1503533355.8,286046999.3,N
1503533375.6,286046998.3,N
1503533395.5,286047001.1,N
1503533415.3,286047001.2,N
1503533435.2,286047000.2,N
1503533455.9,286047002.3,N
1503533475.7,286047003.5,N
1503533495.6,286047004.1,N
1503533515.4,286047003.6,N
1503533535.2,286047002.0,N
1503533555.1,286047002.1,N
1503533556.0,286047002.1,N
1503533575.8,286047000.1,N
1503533595.7,286047002.1,N
1503533615.5,286047000.1,N
1503533635.3,286047002.7,N
1503533655.2,286047002.8,N
1503533675.0,286047000.3,N
1503533675.9,286047000.3,N
1503533695.8,286047002.4,N
1503533715.6,286047002.4,N
1503533735.4,286046999.9,N
1503533755.3,286047000.9,N
1503533775.1,286046999.7,N
1503533795.8,286047002.0,N
1503533815.7,286047000.2,N
1503533835.5,286047000.3,N
1503533855.4,286046999.8,N
1503533875.2,286047000.3,N
1503533895.0,286046999.9,N
1503533895.9,286046999.9,N
1503533915.8,286047004.4,P
1503533935.6,286047002.7,N
1503533955.5,286046999.8,N
1503533975.3,286047002.8,N
1503533995.1,286047002.1,N
1503534015.9,286047001.1,N
1503534035.7,286046998.4,N
1503534055.5,286046998.3,N
1503534075.4,286047000.2,N
1503534095.2,286047001.2,N
1503534115.0,286047000.3,N
1503534116.0,286047000.3,N
1503534135.8,286046998.3,N
1503534155.6,286046998.2,N
1503534175.5,286046999.5,N
1503534195.3,286046999.6,N
1503534215.1,286046997.2,N
1503534235.9,286046997.8,N
1503534255.7,286046995.3,N
1503534275.5,286046996.9,N
1503534295.4,286046999.1,N
1503534315.2,286046996.8,N
1503534335.1,286046997.0,N
1503534336.0,286046997.0,N
1503534355.8,286046995.2,N
1503534375.6,286046997.2,P
1503534395.5,286046999.5,N
1503534415.3,286046999.8,N
1503534435.2,286047000.2,N
1503534455.9,286047000.5,N
1503534475.7,286047000.2,N
1503534495.6,286046999.7,N
1503534515.4,286047000.3,N
1503534535.2,286047000.1,N
1503534555.1,286046999.7,N
1503534556.0,286046999.7,N
1503534575.8,286047000.5,N
1503534595.7,286047004.0,P
1503534615.5,286047003.6,N
1503534635.3,286047001.4,N
1503534655.2,286047002.0,N
1503534675.0,286047004.1,N
1503534675.9,286047004.1,N
1503534695.8,286047003.8,N
1503534715.6,286047003.3,N
1503534735.4,286047004.6,P
1503534755.3,286047005.5,P
1503534775.1,286047005.4,P
1503534795.9,286047005.7,P
1503534815.7,286047002.8,P
1503534835.5,286047000.1,N
1503534855.4,286046998.2,N
1503534875.2,286047000.6,N
1503534895.0,286046999.6,N
1503534896.0,286046999.6,N
1503534915.8,286046998.8,N
1503534935.6,286047001.0,N
1503534955.5,286046999.0,N
1503534975.3,286046999.5,N
1503534995.1,286046999.3,N
1503535015.9,286046996.9,N
1503535035.7,286046996.7,N
1503535055.6,286046995.2,N
1503535075.4,286046993.3,N
1503535095.2,286046994.2,N
1503535115.1,286046995.8,N
1503535116.0,286046995.8,N
1503535135.8,286046996.5,N
1503535155.6,286046997.0,N
1503535175.5,286046999.4,N
1503535195.3,286046997.7,N
1503535215.2,286046998.7,N
1503535235.9,286046998.2,N
1503535255.7,286047000.5,N
1503535275.6,286047002.7,N
1503535295.4,286047001.0,N
1503535315.2,286047000.5,N
1503535335.1,286047001.2,N
1503535336.0,286047001.2,N
1503535355.8,286046998.1,N
1503535375.7,286047001.1,N
1503535395.5,286047001.1,P
1503535415.3,286047001.0,N
1503535435.2,286047000.0,N
1503535455.0,286047001.2,N
1503535455.9,286047001.2,N
1503535475.8,286047002.0,N
1503535495.6,286047002.5,N
1503535515.4,286047005.8,P
1503535535.3,286047003.2,N
1503535555.1,286047003.3,N
1503535575.8,286047004.0,N
1503535595.7,286047004.4,N
1503535615.5,286046999.8,N
1503535635.4,286047003.9,N
1503535655.2,286047002.9,N
1503535675.0,286047004.2,N
1503535675.9,286047004.2,N
1503535695.8,286047003.8,N
1503535715.6,286047003.2,P
1503535735.5,286047000.6,P
1503535755.3,286046998.4,N
1503535775.1,286047001.3,N
1503535795.9,286047002.3,N
1503535815.7,286047002.7,N
1503535835.5,286047002.6,N
1503535855.4,286046999.9,N
1503535875.2,286047000.4,N
1503535895.1,286047000.6,N
1503535896.0,286047000.6,N
1503535915.8,286046998.6,N
1503535935.6,286046996.7,N
1503535955.5,286046997.3,N
1503535975.3,286046997.8,N
1503535995.2,286046997.3,N
1503536015.9,286046996.6,N
1503536035.7,286046999.2,N
1503536055.6,286046999.4,N
1503536075.4,286046998.8,N
1503536095.2,286047000.9,N
1503536115.1,286047001.7,N
1503536116.0,286047001.7,N
1503536135.8,286047000.5,N
1503536155.7,286046999.6,N
1503536175.5,286046999.2,N
1503536195.3,286046999.3,N
1503536215.2,286046998.3,N
1503536235.0,286046999.2,N
1503536235.9,286046999.2,N
1503536255.8,286046999.5,N
1503536275.6,286046996.6,N
1503536295.4,286047002.7,N
1503536315.3,286046998.1,N
1503536335.1,286047000.7,N
1503536355.8,286047004.3,N
1503536375.7,286047001.8,N
1503536395.5,286046999.8,N
